Погода в Ключи

Погода в Ключи : погода сейчас, прогноз погоды и архив. Всё, что Вы хотите узнать о погоде в Ключи!

Поиск расширенной информации на нашем сайте:

Полезная информация: Свежая информация септик с установкой под ключ у нас.

Другие новости

Новости СМИ2

Главная страница сайта

Новости сайта

02.10.2013

Напоминаем, что на нашем новом сайте вы можете получить высокодетализированные прогнозы погоды по пунктам России, СНГ и мира (включающие важные для авиации метеовеличины, такие как направление и скорость ветра, видимость, явления погоды, количество и форма облачности, нижняя и верхняя граница облачности), а также ознакомиться с разнообразными материалами по авиационной метеорологии и подборкой полезных ссылок на эту тему.

Сайт Метеоцентр.Азия посвящён разработке технологий оптимизации авиаметеорологического обслуживания, включая проектирование и перспективное создание нескольких автоматизированных авиаметеорологических систем:
- система выпуска высокодетальных прогностических карт явлений погоды для нижнего воздушного пространства по России и ближнему зарубежью;
- система верификации прогнозов TAF (выпускаемых синоптиками официальных АМСГ РФ и ближнего зарубежья) и AUTOTAF (выпускаемых сайтом Метеоцентр.Азия) - выявление ошибок, онлайн-сопоставление с фактической погодой METAR, автоматическое внесение коррективов в прогнозы при резком отклонении фактической погоды от прогноза, подсчёт оправдываемости прогнозов по элементам и в целом;
- система обработки, анализа и отображения авиаметеорологической информации для применения провайдерами метеорологической информации.

Рекомендуем: 24 И 48 форма Ян-ши тайдзицюань.

Погода в Ключи - сегодня

Время (UTC), дата Ветер
(°,м/с) 
Видим.   Явления Облачность Т
(°С)
Тd
(°С)
f(%) Тe
(°С)
Pmin
(гПа)
dP
(гПа)
Po
(мм)
O2
(г/м3)
Тmin Tmax R s Состояние
почвы
12 25.02.17 030 (СВ) 20000 м    5/0 верхняя 
[Ci fib]
-7.4 -10.1 81 -7  1022.6  0.4  753  313    -0.6       
15 25.02.17 230 (ЮЗ) 20000 м  дымка  ясно 
-8.7 -10.6 86 -8  1023.2  0.5  753  315           
18 25.02.17 240 (ЮЗ) 20000 м    10/0 средняя 
[Ac und]
-6.8 -9.1 84 -6  1023.8  0.8  754  312           
21 25.02.17 250 (З) 0500 м  туман  10/0 средняя 
[Ac und]
-4.5 -5.5 93 -4  1024.4  0.8  755  310           
00 26.02.17 220 (ЮЗ) 0200 м  туман  10/0 средняя 
[Ac und]
-3.9 -4.8 93 -3  1026.6  2.1  756  310  -11.8      46  неравномерный
сухой снег
100% 
03 26.02.17 180 (Ю) 0200 м  переохл. туман  10/0 средняя 
[Ac As]
-3.7 -4.6 93 -3  1028.4  1.9  758  310           
06 26.02.17 160 (Ю) 1000 м  дымка{туман}  10/0 средняя 
[Ac As]
-3.4 -4.5 92 -6  1029.4  0.9  758  310           
09 26.02.17 170 (Ю) 20000 м    10/0 средняя 
[Ac As]
-2.1 -3.9 87 -4  1030.2  0.9  759  309           
12 26.02.17 170 (Ю) 20000 м    8/0 верхняя 
[Ci sp]
-2.5 -4.5 86 -5  1030.1  -0.1  759  309    -1       
15 26.02.17 170 (Ю) 20000 м    ясно 
-3.1 -4.8 88 -6  1030.1  -0.1  759  310           
18 26.02.17 190 (Ю) 20000 м    ясно 
-3.2 -4.9 88 -5  1029.8  -0.2  759  310           
21 26.02.17 190 (Ю) 20000 м    10/0 средняя 
[Ac und]
-2.9 -5.1 85 -5  1029.8  -0.1  759  310           
00 27.02.17 180 (Ю) 20000 м    10/0 средняя 
[Ac und]
-5 -7 86 -7  1030  0.1  759  312  -5      46  неравномерный
сухой снег
100% 
03 27.02.17 150 (ЮВ) 20000 м    ясно 
-8.8 -10.8 85 -12  1030.7  0.4  759  317  -8.8         
06 27.02.17 140 (ЮВ) 20000 м    3/0 верхняя 
[Ci sp]
-4.4 -7.3 80 -7  1029.6  -0.7  758  311           
09 27.02.17 150 (ЮВ) 20000 м    4/0 верхняя 
[Ci]
+1 -4.6 66 -2  1027.7  -1.6  757  305           
12 27.02.17 190 (Ю) 20000 м    3/0 верхняя 
[Cs]
+0.3 -5 68 -2  1027.4  -0.3  757  305    +1.4       
15 27.02.17 190 (Ю) 20000 м    4/0 верхняя 
[Ci sp]
-1.7 -5.5 75 -5  1028.5  0.9  758  308           
18 27.02.17 200 (Ю) 20000 м    ясно 
-2.9 -5.8 80 -5  1029.3  0.7  758  309           
21 27.02.17 180 (Ю) 20000 м    ясно 
-4.7 -6.6 87 -4  1030.3  0.9  759  312           
00 28.02.17 190 (Ю) 20000 м    ясно 
-7.1 -8.3 91 -9  1030.9  0.4  759  315  -7.3      46  неравномерный
сухой снег
100% 
03 28.02.17 300 (СЗ) 20000 м    9/0 верхняя 
[Ci sp]
-9.5 -11.2 87 -9  1031.7  0.6  760  318  -10.8         
06 28.02.17 050 (СВ) 20000 м    9/0 верхняя 
[Ci sp]
-5.8 -9.2 77 -5  1030.9  -0.5  759  314           
09 28.02.17 100 (В) 20000 м    8/0 верхняя 
[Ci sp]
-1.9 -6.3 72 -1  1029.2  -1.4  758  308           
12 28.02.17 100 (В) 20000 м    9/0 верхняя 
[Ci sp]
-4.7 -7.8 79 -7  1028.1  -1.2  757  311    -1.7       
Время (UTC), дата Ветер
(°,м/с) 
Видим.   Явления Облачность Т
(°С)
Тd
(°С)
f(%) Тe
(°С)
Pmin
(гПа)
dP
(гПа)
Po
(мм)
O2
(г/м3)
Тmin Tmax R s Состояние
почвы

Для получения пояснительной информации подведите курсор к названию столбца.

ПОГОДА в Ключи - архив

Всё, что Вы хотите узнать о погоде в Ключи - удобно и подробно!

Выберите нужную дату (начиная с 1 января 2015* года) и нажмите кнопку "Найти".
Будут отображены архивные сводки погоды по пункту Ключи, начиная с указанной даты.


Отображать данные в формате CSV (для использования в таблицах Excel)


Внимание! Наш архив погоды предназначен исключительно для личного некоммерческого использования в познавательных целях. Если Вам необходимы официальные справки о состоянии погоды (для производственных, юридических, коммерческих и т.п. целей), обращайтесь в органы Росгидромета.

*Примечание: данная дата относится к архиву по метеостанциям СССР (Россия, СНГ, Балтия).
Архив по метеостанциям Зарубежной Европы и Азии (кроме Китая) хранится 10 дней, по другим регионам земного шара (Китай, Африка, Америка, Австралия, Океания) - 1 день.

Ключи - район местоположения метеостанции


Название, широта, долгота, высота метеостанции:
Ключи 52.2°ш. 79.1°д. 143 м над ур. моря [Российская Федерация]

Дополнительная информация

В oтличие oт бoльшинства пoгoдных сайтoв мы публикуем пoдрoбную метеoинфoрмацию в детальнoм прoфессиoнальнoм фoрмате.

Характеристики температуры и влажнoсти вoздуха измеряются на высoте 2 м в тени вдали oт зданий и деревьев.
Скoрoсть ветра измеряется на высoте 10 м (на урoвне рoста челoвека скoрoсть ветра ниже в 1.5-2 раза). Если метеoстанция нахoдится в гoрoде или в лесу, тo скoрoсть ветра занижена на 2-4 м/с пo сравнению с oткрытым местoм. Скoрoсть ветра над акватoриями крупных рек и oзёр, а также на вершинах хoлмoв на 2-5 м/с выше, чем в oбычных услoвиях.
Атмoсфернoе давление в разных тoчках местнoсти мoжет значительнo oтличаться oт давления на метеoстанции, в зависимoсти oт услoвий рельефа (при пoдъёме на 10 м давление пoнижается примернo на 1 мм рт.ст.).